Погода в Ойкас-Кибеках

Россия / Чувашская Республика     55°36′52″N   47°10′08″E
темп.,
°C
ветер,
м/с
пор.,
м/с
влажн.,
%
обл.,
%
осадки,
мм/ч
давл.,
гПа
погр.,
м
17 сентября, пт
пт1700:00+7сз5969100 0.0 1015412
03:00+6зсз4866100 0.0 1016391
06:00+6сз4765100 0.0 1016436
09:00+7сз5656100 0.0 10161120
12:00+8сз5646100 0.0 10161635
15:00+9сз5644100 0.0 10161693
18:00+7ссз365399 0.0 1017222
21:00+5сз37659 0.1 1017187
18 сентября, сб
сб1800:00+2зсз49745 0.0 1018168
03:00+1сз38955 0.0 1019171
06:00+1сз389796 0.0 1020189
09:00+5ссз5783100 0.0 1021529
12:00+9ссз565595 0.1 10211609
15:00+10ссз673974 0.1 10221830
18:00+6с345678 0.0 102355
21:00+3ссз227311 0.0 102415
19 сентября, вс
вс1900:00+4с37736 0.0 1025269
03:000ссз33875 0.0 102643
06:000сз2385100 0.0 102654
09:00+5сз3357100 0.0 1027588
12:00+9ссз33425 0.0 10261144
15:00+10ссз333998 0.0 10261238
18:00+5ссв225564 0.0 102610
21:00+4св2260100 0.0 102610
20 сентября, пн
пн2000:00+3всв3466100 0.0 102780
03:00+2в4876100 0.0 1027204
06:00+2в4877100 0.0 1028243
09:00+5в5762100 0.0 1028453
12:00+7вюв5658100 0.0 1028774
15:00+8вюв5655100 0.0 1027860
18:00+7вюв5858100 0.0 1027449
21:00+6вюв51060100 0.0 1027395
21 сентября, вт
вт2100:00+7вюв41061100 0.1 1027428
03:00+7вюв51059100 0.1 1026413
06:00+7вюв51059100 0.0 1026373
09:00+9вюв695381 0.0 1026498
12:00+12юв784694 0.0 10251101
15:00+14юв684587 0.0 10241262
18:00+11юв375296 0.0 1024217
21:00+9вюв5115482 0.0 1024298